Weather History for Fort Belvoir, VA

Change the Weather History Date:

Thursday, September 8, 2011

  Actual Average Record
Temperature  
Mean Temperature 73 °F -  
Max Temperature 77 °F 81 °F 94 °F (2010)
Min Temperature 69 °F 60 °F 51 °F (2000)
Cooling Degree Days 8    
Growing Degree Days 23 (Base 50)    
Moisture  
Dew Point 72 °F    
Average Humidity 97    
Maximum Humidity 100    
Minimum Humidity 85    
Precipitation  
Precipitation 8.82 in - - ()
Sea Level Pressure  
Sea Level Pressure 29.89 in    
Wind  
Wind Speed 2 mph (NW)    
Max Wind Speed 14 mph    
Max Gust Speed 20 mph    
Visibility 4 miles    
Events Fog , Rain , Thunderstorm    
Averages and records for this station are not official NWS values.
T = Trace of Precipitation, MM = Missing Value Source: NWS Daily Summary

Daily Weather History Graph

Daily Weather History Graph

Search for Another Location

Airport:

Trip Planner

Search our weather history database for the weather conditions in past years. The results will help you decide how hot, cold, wet, or windy it might be!

Date:

Astronomy

Sep. 08, 2011 Rise Set
Actual Time 6:43 AM EDT 7:28 PM EDT
Civil Twilight 6:16 AM EDT 7:55 PM EDT
Nautical Twilight 5:44 AM EDT 8:27 PM EDT
Astronomical Twilight 5:12 AM EDT 8:59 PM EDT
Moon 5:19 PM EDT (9/8) 3:02 AM EDT (9/8)
Length of Visible Light 13h 38m
Length of Day
12h 44m
Waxing Gibbous, 87% of the Moon is Illuminated
Sep 8
Waxing Gibbous
Sep 12
Full
Sep 20
Last Quarter
Sep 27
New
Oct 3
First Quarter

Hourly Weather History & Observations

Time (EDT) Temp. Dew Point Humidity Pressure Visibility Wind Dir Wind Speed Gust Speed Precip Events Conditions
12:02 AM 69.8 °F 69.8 °F 100% 29.92 in 2.5 mi Calm Calm - N/A Rain , Thunderstorm Thunderstorms and Rain
12:03 AM 69.8 °F 69.8 °F 100% 29.92 in 2.0 mi Calm Calm - N/A Rain , Thunderstorm Thunderstorms and Rain
12:04 AM 69.8 °F 69.8 °F 100% 29.91 in 1.5 mi Calm Calm - N/A Rain Rain
12:05 AM 69.8 °F 69.8 °F 100% 29.91 in 1.2 mi Calm Calm - N/A Rain Heavy Rain
12:08 AM 69.8 °F 69.8 °F 100% 29.91 in 1.0 mi Calm Calm - N/A Rain Heavy Rain
12:19 AM 69.8 °F 69.8 °F 100% 29.91 in 1.2 mi WNW 4.6 mph - N/A Rain Heavy Rain
12:21 AM 69.8 °F 69.8 °F 100% 29.91 in 1.2 mi WNW 3.5 mph - N/A Rain Heavy Rain
12:22 AM 69.8 °F 69.8 °F 100% 29.91 in 1.5 mi Calm Calm - N/A Rain Rain
12:23 AM 69.8 °F 69.8 °F 100% 29.91 in 1.8 mi Calm Calm - N/A Rain Rain
12:24 AM 69.8 °F 69.8 °F 100% 29.91 in 2.0 mi Calm Calm - N/A Rain Light Rain
12:26 AM 69.8 °F 69.8 °F 100% 29.91 in 2.5 mi Calm Calm - N/A Rain Light Rain
12:27 AM 69.8 °F 69.8 °F 100% 29.91 in 3.0 mi Calm Calm - N/A Rain Light Rain
12:31 AM 69.8 °F 69.8 °F 100% 29.91 in 6.0 mi Calm Calm - N/A Rain Light Rain
12:46 AM 69.8 °F 69.8 °F 100% 29.92 in 5.0 mi Calm Calm - N/A Rain Light Rain
12:49 AM 69.8 °F 69.8 °F 100% 29.91 in 5.0 mi Calm Calm - N/A Rain Light Rain
12:55 AM 70.2 °F 69.6 °F 98% 29.91 in 7.0 mi Calm Calm - 0.28 in Rain Light Rain
12:57 AM 69.8 °F 69.8 °F 100% 29.91 in 8.0 mi Calm Calm - N/A Rain Light Rain
12:59 AM 69.8 °F 69.8 °F 100% 29.91 in 9.0 mi Calm Calm - N/A Rain Light Rain
1:06 AM 69.8 °F 69.8 °F 100% 29.91 in 10.0 mi Calm Calm - N/A   Overcast
1:10 AM 69.8 °F 69.8 °F 100% 29.91 in 5.0 mi Calm Calm - N/A Rain Heavy Rain
1:12 AM 69.8 °F 69.8 °F 100% 29.91 in 3.0 mi Calm Calm - N/A Rain Rain
1:14 AM 69.8 °F 69.8 °F 100% 29.91 in 2.5 mi Calm Calm - N/A Rain Heavy Rain
1:16 AM 69.8 °F 69.8 °F 100% 29.91 in 2.0 mi Calm Calm - N/A Rain Rain
1:17 AM 69.8 °F 69.8 °F 100% 29.91 in 1.8 mi Calm Calm - N/A Rain Rain
1:18 AM 69.8 °F 69.8 °F 100% 29.92 in 1.5 mi Calm Calm - N/A Rain Rain
1:19 AM 69.8 °F 69.8 °F 100% 29.91 in 1.2 mi ESE 4.6 mph - N/A Rain Rain
1:23 AM 69.8 °F 69.8 °F 100% 29.92 in 1.0 mi Variable 3.5 mph - N/A Rain Heavy Rain
1:25 AM 69.8 °F 69.8 °F 100% 29.92 in 1.0 mi ESE 4.6 mph - N/A Rain Heavy Rain
1:26 AM 69.8 °F 69.8 °F 100% 29.91 in 0.8 mi ESE 4.6 mph - N/A Rain , Thunderstorm Heavy Thunderstorms and Rain
1:28 AM 69.8 °F 69.8 °F 100% 29.91 in 0.8 mi Variable 3.5 mph - N/A Rain , Thunderstorm Heavy Thunderstorms and Rain
1:33 AM 69.8 °F 69.8 °F 100% 29.91 in 0.8 mi Calm Calm - N/A Rain , Thunderstorm Heavy Thunderstorms and Rain
1:37 AM 69.8 °F 69.8 °F 100% 29.91 in 1.0 mi Variable 3.5 mph - N/A Rain , Thunderstorm Heavy Thunderstorms and Rain
1:39 AM 69.8 °F 69.8 °F 100% 29.91 in 1.2 mi Variable 3.5 mph - N/A Rain , Thunderstorm Thunderstorms and Rain
1:40 AM 69.8 °F 69.8 °F 100% 29.91 in 1.5 mi West 3.5 mph - N/A Rain , Thunderstorm Thunderstorms and Rain
1:41 AM 69.8 °F 69.8 °F 100% 29.91 in 2.0 mi WNW 3.5 mph - N/A Rain , Thunderstorm Thunderstorms and Rain
1:42 AM 69.8 °F 69.8 °F 100% 29.91 in 2.5 mi WNW 4.6 mph - N/A Rain , Thunderstorm Thunderstorms and Rain
1:43 AM 69.8 °F 69.8 °F 100% 29.91 in 3.0 mi WNW 3.5 mph - N/A Rain , Thunderstorm Thunderstorms and Rain
1:48 AM 69.8 °F 69.8 °F 100% 29.91 in 6.0 mi West 3.5 mph - N/A Rain Light Rain
1:55 AM 70.3 °F 70.0 °F 99% 29.90 in 3.0 mi NW 4.6 mph - 0.59 in Rain Light Rain
2:15 AM 69.8 °F 69.8 °F 100% 29.90 in 10.0 mi WNW 3.5 mph - N/A Rain Light Rain
2:55 AM 70.2 °F 69.8 °F 99% 29.89 in 5.0 mi WNW 4.6 mph - 0.06 in Rain Light Rain
2:58 AM 69.8 °F 69.8 °F 100% 29.89 in 7.0 mi Calm Calm - N/A Rain Light Rain
3:05 AM 69.8 °F 69.8 °F 100% 29.89 in 10.0 mi Calm Calm - N/A   Light Drizzle
3:07 AM 69.8 °F 69.8 °F 100% 29.89 in 10.0 mi Calm Calm - N/A   Overcast
3:09 AM 69.8 °F 69.8 °F 100% 29.89 in 10.0 mi Calm Calm - N/A   Overcast
3:11 AM 69.8 °F 69.8 °F 100% 29.89 in 10.0 mi Calm Calm - N/A Rain Light Rain
3:27 AM 69.8 °F 69.8 °F 100% 29.88 in 10.0 mi NW 3.5 mph - N/A   Overcast
3:50 AM 69.8 °F 69.8 °F 100% 29.87 in 10.0 mi Calm Calm - N/A   Mostly Cloudy
3:52 AM 69.8 °F 69.8 °F 100% 29.87 in 10.0 mi Calm Calm - N/A   Mostly Cloudy
3:55 AM 70.0 °F 69.6 °F 99% 29.87 in 10.0 mi Calm Calm - 0.01 in   Mostly Cloudy
3:57 AM 69.8 °F 69.8 °F 100% 29.87 in 10.0 mi Calm Calm - N/A   Mostly Cloudy
4:06 AM 69.8 °F 69.8 °F 100% 29.88 in 10.0 mi Calm Calm - N/A   Overcast
4:18 AM 69.8 °F 69.8 °F 100% 29.88 in 6.0 mi Calm Calm - N/A   Overcast
4:25 AM 69.8 °F 69.8 °F 100% 29.88 in 10.0 mi Calm Calm - N/A   Overcast
4:37 AM 69.8 °F 69.8 °F 100% 29.89 in 10.0 mi Calm Calm - N/A   Overcast
4:51 AM 69.8 °F 69.8 °F 100% 29.89 in 10.0 mi Calm Calm - N/A   Overcast
4:55 AM 70.2 °F 69.8 °F 99% 29.89 in 10.0 mi Calm Calm - N/A   Overcast
5:16 AM 69.8 °F 69.8 °F 100% 29.90 in 5.0 mi Calm Calm - N/A   Overcast
5:41 AM 69.8 °F 69.8 °F 100% 29.89 in 4.0 mi Calm Calm - N/A Rain Light Rain
5:43 AM 69.8 °F 69.8 °F 100% 29.89 in 5.0 mi Calm Calm - N/A Rain Light Rain
5:53 AM 69.8 °F 69.8 °F 100% 29.90 in 10.0 mi Calm Calm - N/A Rain Light Rain
5:55 AM 70.2 °F 69.8 °F 99% 29.90 in 10.0 mi Calm Calm - 0.00 in Rain Light Rain
6:31 AM 69.8 °F 69.8 °F 100% 29.91 in 9.0 mi Calm Calm - N/A   Overcast
6:38 AM 69.8 °F 69.8 °F 100% 29.91 in 9.0 mi Calm Calm - N/A Rain Light Rain
6:46 AM 69.8 °F 69.8 °F 100% 29.91 in 5.0 mi Calm Calm - N/A Rain Light Rain
6:55 AM 70.5 °F 70.2 °F 99% 29.91 in 5.0 mi Calm Calm - 0.01 in   Light Drizzle
6:56 AM 69.8 °F 69.8 °F 100% 29.91 in 5.0 mi Calm Calm - N/A   Overcast
7:05 AM 71.6 °F 69.8 °F 94% 29.91 in 6.0 mi Calm Calm - N/A   Overcast
7:27 AM 71.6 °F 69.8 °F 94% 29.91 in 2.5 mi Calm Calm - N/A   Overcast
7:29 AM 71.6 °F 69.8 °F 94% 29.91 in 2.0 mi Calm Calm - N/A   Overcast
7:31 AM 71.6 °F 69.8 °F 94% 29.91 in 2.5 mi Calm Calm - N/A   Overcast
7:35 AM 71.6 °F 69.8 °F 94% 29.92 in 3.0 mi Calm Calm - N/A   Overcast
7:55 AM 71.1 °F 70.7 °F 99% 29.92 in 7.0 mi Calm Calm - N/A   Overcast
8:18 AM 71.6 °F 71.6 °F 100% 29.91 in 9.0 mi Calm Calm - N/A   Overcast
8:20 AM 71.6 °F 71.6 °F 100% 29.91 in 7.0 mi Calm Calm - N/A Rain Light Rain
8:48 AM 71.6 °F 71.6 °F 100% 29.91 in 4.0 mi Calm Calm - N/A Rain Light Rain
8:55 AM 71.4 °F 71.1 °F 99% 29.91 in 8.0 mi Calm Calm - 0.03 in Rain Light Rain
9:01 AM 71.6 °F 71.6 °F 100% 29.91 in 4.0 mi Calm Calm - N/A Rain Rain
9:02 AM 71.6 °F 71.6 °F 100% 29.91 in 2.5 mi Calm Calm - N/A Rain Rain
9:03 AM 71.6 °F 71.6 °F 100% 29.91 in 2.0 mi Calm Calm - N/A Rain Heavy Rain
9:04 AM 71.6 °F 71.6 °F 100% 29.91 in 1.5 mi Calm Calm - N/A Rain Heavy Rain
9:05 AM 71.6 °F 71.6 °F 100% 29.91 in 1.2 mi Calm Calm - N/A Rain Heavy Rain
9:06 AM 71.6 °F 71.6 °F 100% 29.91 in 1.0 mi Variable 3.5 mph - N/A Rain Heavy Rain
9:07 AM 71.6 °F 71.6 °F 100% 29.90 in 0.8 mi Variable 3.5 mph - N/A Rain Heavy Rain
9:08 AM 71.6 °F 71.6 °F 100% 29.91 in 0.5 mi Variable 3.5 mph - N/A Fog , Rain Heavy Rain
9:12 AM 71.6 °F 71.6 °F 100% 29.91 in 0.8 mi Calm Calm - N/A Rain Light Rain
9:17 AM 71.6 °F 71.6 °F 100% 29.91 in 1.2 mi Calm Calm - N/A Rain Light Rain
9:18 AM 71.6 °F 71.6 °F 100% 29.91 in 1.5 mi Calm Calm - N/A Rain Light Rain
9:19 AM 71.6 °F 71.6 °F 100% 29.91 in 1.8 mi Variable 3.5 mph - N/A Rain Light Rain
9:20 AM 71.6 °F 71.6 °F 100% 29.91 in 2.0 mi Variable 3.5 mph - N/A Rain Light Rain
9:21 AM 71.6 °F 71.6 °F 100% 29.91 in 2.5 mi Variable 3.5 mph - N/A Rain Light Rain
9:23 AM 71.6 °F 71.6 °F 100% 29.91 in 3.0 mi Calm Calm - N/A Rain Light Rain
9:44 AM 71.6 °F 71.6 °F 100% 29.91 in 10.0 mi Calm Calm - N/A   Overcast
9:54 AM 71.6 °F 71.6 °F 100% 29.91 in 10.0 mi Variable 3.5 mph - N/A Rain Light Rain
9:55 AM 72.5 °F 72.1 °F 99% 29.91 in 10.0 mi Calm Calm - 0.22 in Rain Light Rain
10:08 AM 73.4 °F 71.6 °F 94% 29.91 in 8.0 mi Calm Calm - N/A Rain Light Rain
10:10 AM 73.4 °F 73.4 °F 100% 29.91 in 10.0 mi Calm Calm - N/A   Overcast
10:23 AM 73.4 °F 73.4 °F 100% 29.92 in 10.0 mi Calm Calm - N/A   Overcast
10:34 AM 73.4 °F 73.4 °F 100% 29.91 in 10.0 mi Calm Calm - N/A   Overcast
10:55 AM 73.0 °F 72.7 °F 99% 29.92 in 10.0 mi Calm Calm - 0.01 in Rain Light Rain
11:14 AM 73.4 °F 73.4 °F 100% 29.92 in 10.0 mi Calm Calm - N/A   Light Drizzle
11:39 AM 73.4 °F 73.4 °F 100% 29.92 in 2.5 mi Calm Calm - N/A Rain Rain
11:40 AM 73.4 °F 73.4 °F 100% 29.92 in 1.8 mi Calm Calm - N/A Rain Rain
11:41 AM 73.4 °F 73.4 °F 100% 29.92 in 1.5 mi Calm Calm - N/A Rain Heavy Rain
11:42 AM 73.4 °F 73.4 °F 100% 29.92 in 1.2 mi Calm Calm - N/A Rain Heavy Rain
11:43 AM 73.4 °F 73.4 °F 100% 29.92 in 1.0 mi Calm Calm - N/A Rain Heavy Rain
11:46 AM 73.4 °F 73.4 °F 100% 29.91 in 0.8 mi Calm Calm - N/A Rain Heavy Rain
11:48 AM 73.4 °F 73.4 °F 100% 29.91 in 0.8 mi Calm Calm - N/A Rain Heavy Rain
11:50 AM 73.4 °F 73.4 °F 100% 29.91 in 0.8 mi Calm Calm - N/A Rain Heavy Rain
11:51 AM 73.4 °F 73.4 °F 100% 29.91 in 0.8 mi Calm Calm - N/A Rain Heavy Rain
11:54 AM 73.4 °F 73.4 °F 100% 29.91 in 1.0 mi Calm Calm - N/A Rain Heavy Rain
11:55 AM 73.2 °F 72.7 °F 98% 29.91 in 1.0 mi Calm Calm - 0.20 in Rain Heavy Rain
11:57 AM 73.4 °F 73.4 °F 100% 29.91 in 1.2 mi Calm Calm - N/A Rain Light Rain
11:59 AM 73.4 °F 73.4 °F 100% 29.91 in 1.5 mi Calm Calm - N/A Rain Light Rain
12:24 PM 73.4 °F 71.6 °F 94% 29.89 in 2.0 mi West 3.5 mph - N/A Rain Light Rain
12:48 PM 73.4 °F 73.4 °F 100% 29.88 in 3.0 mi Variable 2.3 mph - N/A Rain Light Rain
12:55 PM 73.4 °F 73.0 °F 99% 29.87 in 10.0 mi NNE 1.2 mph - 0.22 in Rain Light Rain
1:29 PM 73.4 °F 73.4 °F 100% 29.88 in 10.0 mi WSW 3.5 mph - N/A Rain Light Rain
1:30 PM 73.4 °F 73.4 °F 100% 29.89 in 10.0 mi WSW 3.5 mph - N/A   Overcast
1:31 PM 73.4 °F 73.4 °F 100% 29.89 in 10.0 mi WSW 3.5 mph - N/A   Overcast
1:33 PM 73.4 °F 73.4 °F 100% 29.89 in 10.0 mi West 3.5 mph - N/A   Overcast
1:38 PM 73.4 °F 73.4 °F 100% 29.89 in 10.0 mi WNW 3.5 mph - N/A   Overcast
1:55 PM 74.3 °F 73.8 °F 98% 29.88 in 10.0 mi Calm Calm - 0.01 in   Overcast
2:00 PM 75.2 °F 73.4 °F 94% 29.88 in 10.0 mi Calm Calm - N/A   Mostly Cloudy
2:10 PM 75.2 °F 75.2 °F 100% 29.88 in 10.0 mi Variable 3.5 mph - N/A   Overcast
2:24 PM 77.0 °F 75.2 °F 94% 29.87 in 10.0 mi Variable 4.6 mph - N/A   Overcast
2:26 PM 77.0 °F 75.2 °F 94% 29.87 in 10.0 mi WNW 4.6 mph - N/A   Overcast
2:30 PM 77.0 °F 75.2 °F 94% 29.87 in 10.0 mi WNW 3.5 mph - N/A   Overcast
2:31 PM 77.0 °F 75.2 °F 94% 29.87 in 10.0 mi WNW 4.6 mph - N/A   Overcast
2:40 PM 75.2 °F 73.4 °F 94% 29.86 in 10.0 mi Calm Calm - N/A   Overcast
2:55 PM 75.7 °F 73.6 °F 93% 29.86 in 10.0 mi Calm Calm - N/A   Overcast
3:36 PM 77.0 °F 73.4 °F 89% 29.85 in 10.0 mi Variable 4.6 mph - N/A Thunderstorm Thunderstorm
3:39 PM 77.0 °F 73.4 °F 89% 29.85 in 10.0 mi ESE 8.1 mph - N/A Thunderstorm Thunderstorm
3:51 PM 77.0 °F 73.4 °F 89% 29.85 in 10.0 mi Variable 5.8 mph - N/A   Mostly Cloudy
3:55 PM 77.4 °F 72.7 °F 85% 29.85 in 10.0 mi Variable 4.6 mph - N/A   Mostly Cloudy
4:13 PM 77.0 °F 73.4 °F 89% 29.85 in 10.0 mi Calm Calm - N/A   Mostly Cloudy
4:21 PM 77.0 °F 73.4 °F 89% 29.85 in 10.0 mi Calm Calm - N/A   Mostly Cloudy
4:45 PM 77.0 °F 73.4 °F 89% 29.84 in 10.0 mi Calm Calm - N/A   Light Drizzle
4:48 PM 77.0 °F 73.4 °F 89% 29.84 in 5.0 mi Variable 3.5 mph - N/A Rain Light Rain
4:49 PM 77.0 °F 73.4 °F 89% 29.84 in 4.0 mi Variable 3.5 mph - N/A Rain Light Rain
4:50 PM 77.0 °F 73.4 °F 89% 29.84 in 2.5 mi Calm Calm - N/A Rain Light Rain
4:51 PM 77.0 °F 73.4 °F 89% 29.84 in 2.0 mi Variable 3.5 mph - N/A Rain Rain
4:52 PM 77.0 °F 73.4 °F 89% 29.84 in 1.5 mi North 5.8 mph - N/A Rain Heavy Rain
4:53 PM 77.0 °F 73.4 °F 89% 29.84 in 1.2 mi North 4.6 mph - N/A Rain Heavy Rain
4:54 PM 77.0 °F 73.4 °F 89% 29.84 in 1.0 mi Calm Calm - N/A Rain Heavy Rain
4:55 PM 76.1 °F 72.9 °F 90% 29.84 in 0.8 mi Variable 3.5 mph - 0.15 in Rain Heavy Rain
4:56 PM 75.2 °F 73.4 °F 94% 29.84 in 0.5 mi Variable 5.8 mph - N/A Fog , Rain Heavy Rain
5:02 PM 75.2 °F 73.4 °F 94% 29.84 in 0.5 mi Variable 3.5 mph - N/A Fog , Rain Heavy Rain
5:03 PM 75.2 °F 73.4 °F 94% 29.84 in 0.5 mi Calm Calm - N/A Fog , Rain Heavy Rain
5:11 PM 75.2 °F 73.4 °F 94% 29.85 in 0.2 mi SSW 6.9 mph - N/A Fog , Rain Heavy Rain
5:12 PM 75.2 °F 73.4 °F 94% 29.85 in 0.2 mi SW 6.9 mph - N/A Fog , Rain Heavy Rain
5:14 PM 75.2 °F 73.4 °F 94% 29.85 in 0.2 mi WSW 6.9 mph - N/A Fog , Rain Heavy Rain
5:18 PM 75.2 °F 73.4 °F 94% 29.85 in 0.2 mi WNW 6.9 mph - N/A Fog , Rain , Thunderstorm Heavy Thunderstorms and Rain
5:20 PM 75.2 °F 73.4 °F 94% 29.84 in 0.2 mi WNW 5.8 mph - N/A Fog , Rain , Thunderstorm Heavy Thunderstorms and Rain
5:26 PM 73.4 °F 73.4 °F 100% 29.84 in 0.2 mi WNW 8.1 mph - N/A Fog , Rain , Thunderstorm Heavy Thunderstorms and Rain
5:32 PM 73.4 °F 73.4 °F 100% 29.84 in 0.2 mi NW 10.4 mph - N/A Fog , Rain , Thunderstorm Heavy Thunderstorms and Rain
5:33 PM 73.4 °F 73.4 °F 100% 29.84 in 0.2 mi NW 11.5 mph - N/A Fog , Rain Heavy Rain
5:50 PM 73.4 °F 71.6 °F 94% 29.86 in 0.2 mi NW 12.7 mph - N/A Fog , Rain Heavy Rain
5:53 PM 73.4 °F 71.6 °F 94% 29.86 in 0.2 mi NW 11.5 mph - N/A Fog , Rain , Thunderstorm Heavy Thunderstorms and Rain
5:55 PM 73.2 °F 72.0 °F 96% 29.86 in 0.2 mi NNW 13.8 mph - 2.65 in Fog , Rain , Thunderstorm Heavy Thunderstorms and Rain
5:58 PM 73.4 °F 71.6 °F 94% 29.86 in 0.2 mi NNW 11.5 mph - N/A Fog , Rain , Thunderstorm Heavy Thunderstorms and Rain
6:04 PM 73.4 °F 71.6 °F 94% 29.86 in 0.2 mi NNW 12.7 mph 19.6 mph N/A Fog , Rain , Thunderstorm Heavy Thunderstorms and Rain
6:13 PM 73.4 °F 71.6 °F 94% 29.86 in 0.2 mi NNW 10.4 mph 19.6 mph N/A Fog , Rain , Thunderstorm Heavy Thunderstorms and Rain
6:17 PM 73.4 °F 71.6 °F 94% 29.86 in 0.2 mi North 5.8 mph 18.4 mph N/A Fog , Rain , Thunderstorm Heavy Thunderstorms and Rain
6:19 PM 73.4 °F 71.6 °F 94% 29.86 in 0.2 mi Calm Calm 18.4 mph N/A Fog , Rain , Thunderstorm Heavy Thunderstorms and Rain
6:28 PM 73.4 °F 71.6 °F 94% 29.86 in 0.2 mi Variable 3.5 mph - N/A Fog , Rain , Thunderstorm Heavy Thunderstorms and Rain
6:29 PM 73.4 °F 71.6 °F 94% 29.85 in 0.2 mi Variable 5.8 mph - N/A Fog , Rain , Thunderstorm Heavy Thunderstorms and Rain
6:35 PM 73.4 °F 71.6 °F 94% 29.85 in 0.2 mi North 8.1 mph - N/A Fog , Rain , Thunderstorm Heavy Thunderstorms and Rain
6:36 PM 73.4 °F 71.6 °F 94% 29.85 in 0.2 mi Variable 6.9 mph - N/A Fog , Rain , Thunderstorm Heavy Thunderstorms and Rain
6:37 PM 73.4 °F 71.6 °F 94% 29.85 in 0.2 mi Variable 5.8 mph - N/A Fog , Rain , Thunderstorm Heavy Thunderstorms and Rain
6:39 PM 73.4 °F 71.6 °F 94% 29.85 in 0.5 mi Variable 4.6 mph - N/A Fog , Rain , Thunderstorm Heavy Thunderstorms and Rain
6:44 PM 73.4 °F 71.6 °F 94% 29.86 in 0.5 mi Variable 3.5 mph - N/A Fog , Rain , Thunderstorm Heavy Thunderstorms and Rain
6:45 PM 73.4 °F 71.6 °F 94% 29.86 in 0.8 mi Variable 4.6 mph - N/A Rain Heavy Rain
6:48 PM 73.4 °F 71.6 °F 94% 29.86 in 0.8 mi Variable 3.5 mph - N/A Rain , Thunderstorm Heavy Thunderstorms and Rain
6:51 PM 73.4 °F 71.6 °F 94% 29.86 in 1.0 mi NW 5.8 mph - N/A Rain , Thunderstorm Heavy Thunderstorms and Rain
6:52 PM 73.4 °F 71.6 °F 94% 29.86 in 1.0 mi NW 5.8 mph - N/A Rain , Thunderstorm Heavy Thunderstorms and Rain
6:53 PM 73.4 °F 71.6 °F 94% 29.86 in 1.2 mi NW 5.8 mph - N/A Rain , Thunderstorm Heavy Thunderstorms and Rain
6:55 PM 72.9 °F 72.0 °F 97% 29.86 in 1.2 mi NW 4.6 mph - 2.44 in Rain , Thunderstorm Heavy Thunderstorms and Rain
6:56 PM 73.4 °F 71.6 °F 94% 29.86 in 1.0 mi Variable 4.6 mph - N/A Rain , Thunderstorm Heavy Thunderstorms and Rain
6:58 PM 73.4 °F 71.6 °F 94% 29.86 in 0.8 mi NNW 5.8 mph - N/A Rain , Thunderstorm Heavy Thunderstorms and Rain
7:00 PM 73.4 °F 71.6 °F 94% 29.86 in 0.5 mi Variable 6.9 mph - N/A Fog , Rain , Thunderstorm Heavy Thunderstorms and Rain
7:05 PM 73.4 °F 71.6 °F 94% 29.87 in 0.5 mi NW 4.6 mph - N/A Fog , Rain , Thunderstorm Heavy Thunderstorms and Rain
7:08 PM 73.4 °F 71.6 °F 94% 29.88 in 0.5 mi NW 4.6 mph - N/A Fog , Rain , Thunderstorm Heavy Thunderstorms and Rain
7:10 PM 73.4 °F 71.6 °F 94% 29.87 in 0.2 mi NW 6.9 mph - N/A Fog , Rain , Thunderstorm Heavy Thunderstorms and Rain
7:12 PM 73.4 °F 71.6 °F 94% 29.86 in 0.2 mi NW 9.2 mph - N/A Fog , Rain , Thunderstorm Heavy Thunderstorms and Rain
7:18 PM 73.4 °F 71.6 °F 94% 29.87 in 0.5 mi NNW 6.9 mph - N/A Fog , Rain , Thunderstorm Heavy Thunderstorms and Rain
7:20 PM 73.4 °F 71.6 °F 94% 29.87 in 0.5 mi Variable 4.6 mph - N/A Fog , Rain , Thunderstorm Heavy Thunderstorms and Rain
7:23 PM 73.4 °F 71.6 °F 94% 29.87 in 0.8 mi NNW 8.1 mph - N/A Rain , Thunderstorm Heavy Thunderstorms and Rain
7:27 PM 73.4 °F 71.6 °F 94% 29.87 in 0.8 mi Variable 4.6 mph - N/A Rain , Thunderstorm Heavy Thunderstorms and Rain
7:31 PM 73.4 °F 71.6 °F 94% 29.88 in 0.5 mi Variable 3.5 mph - N/A Fog , Rain , Thunderstorm Heavy Thunderstorms and Rain
7:37 PM 73.4 °F 71.6 °F 94% 29.87 in 0.5 mi NW 11.5 mph - N/A Fog , Rain , Thunderstorm Heavy Thunderstorms and Rain
7:40 PM 73.4 °F 71.6 °F 94% 29.87 in 0.8 mi NNW 8.1 mph - N/A Rain , Thunderstorm Heavy Thunderstorms and Rain
7:44 PM 73.4 °F 71.6 °F 94% 29.87 in 0.8 mi NNW 4.6 mph - N/A Rain , Thunderstorm Heavy Thunderstorms and Rain
7:55 PM 72.5 °F 71.6 °F 97% 29.87 in 0.8 mi Variable 3.5 mph - 1.94 in Rain , Thunderstorm Heavy Thunderstorms and Rain
7:59 PM 71.6 °F 71.6 °F 100% 29.87 in 1.0 mi Variable 4.6 mph - N/A Rain , Thunderstorm Heavy Thunderstorms and Rain
8:04 PM 71.6 °F 71.6 °F 100% 29.87 in 0.8 mi Variable 3.5 mph - N/A Rain , Thunderstorm Heavy Thunderstorms and Rain
8:11 PM 73.4 °F 71.6 °F 94% 29.88 in 0.8 mi Variable 5.8 mph - N/A Rain , Thunderstorm Heavy Rain
8:18 PM 73.4 °F 71.6 °F 94% 29.87 in 0.8 mi Variable 5.8 mph - N/A Rain , Thunderstorm Heavy Thunderstorms and Rain
8:19 PM 73.4 °F 71.6 °F 94% 29.87 in 1.0 mi Variable 4.6 mph - N/A Rain , Thunderstorm Heavy Thunderstorms and Rain
8:24 PM 73.4 °F 71.6 °F 94% 29.87 in 1.2 mi Variable 4.6 mph - N/A Rain , Thunderstorm Heavy Thunderstorms and Rain
8:27 PM 71.6 °F 71.6 °F 100% 29.86 in 1.5 mi Variable 5.8 mph - N/A Rain , Thunderstorm Heavy Thunderstorms and Rain
8:29 PM 71.6 °F 71.6 °F 100% 29.86 in 1.5 mi Variable 4.6 mph - N/A Rain , Thunderstorm Heavy Thunderstorms and Rain
8:56 PM 72.3 °F 72.1 °F 99% 29.87 in 5.0 mi Variable 5.8 mph - N/A Rain Light Rain Showers